Location: Ammerl�gen
(47.2167°N, 9.6000°E)
Time: 09:35:36
(UTC+00:00)

SL-4 R/B - Pass Details

Date: 21 April 2021
Orbit: 427 x 663 km, 51.6° (Epoch: 06 May)

Event Time Altitude Azimuth Distance (km) Brightness Sun altitude
Rises 21:31:27 0° 257° (WSW) 2,827 5.9 -25.8°
Reaches altitude 10° 21:33:41 10° 260° (W) 1,961 5.0 -26.0°
Maximum altitude 21:38:11 65° 343° (NNW) 703 2.6 -26.4°
Enters shadow 21:38:45 59° 22° (NNE) 743 2.7 -26.4°
